Home   Weather   Gandhinagar   Past weeks

Flag for India Past Weather in Gandhinagar, Gujarat, India — Yesterday and Last 2 Weeks

Now
54 °F

Haze.


Feels Like: 54 °F
Forecast: 61 / 83 °F
Wind: No wind

Location: Ahmadabad Airport

Current Time: Jan 18, 2017 at 7:38:51 am

Latest Report: Jan 18, 2017 at 7:00 am


Visibility: 2 mi

Pressure: 30.07 "Hg

Humidity: 72%

Dew Point: 45 °F

Location of GandhinagarLocation

Past Weather in Gandhinagar — Graph

°F

Gandhinagar Temperature Yesterday

Maximum temperature yesterday: 77 °F (at 2:30 pm)
Minimum temperature yesterday: 52 °F (at 6:00 am)
Average temperature yesterday: 64 °F

High & Low Weather Summary for the Past Weeks

 TemperatureHumidityPressure
High86 °F (Jan 4, 2:00 pm)94% (Jan 6, 6:30 am)30.12 "Hg (Jan 6, 6:30 am)
Low52 °F (Jan 11, 7:00 am)21% (Jan 13, 3:00 pm)29.80 "Hg (Jan 7, 2:30 pm)
Average67 °F54%29.96 "Hg
* Reported Jan 3 5:30 am — Jan 18 6:00 am, Gandhinagar, Weather by CustomWeather, © 2017

Note: Actual official high and low records may vary slightly from our data, if they occured in-between our weather recording intervals... More about our weather records

Advertising

Gandhinagar Weather History for the Previous 24 Hours

Scroll right to see more
 ConditionsComfort  
Time TempWeatherWind HumidityBarometerVisibility
6:00 am
Wed, Jan 18
54 °FHaze.No wind72%30.04 "Hg2 mi
5:30 am54 °FHaze.No wind72%30.04 "Hg2 mi
5:00 am55 °FHaze.No wind67%30.01 "Hg2 mi
4:30 am54 °FHaze.No wind82%30.01 "Hg2 mi
4:00 am55 °FHaze.No wind82%30.01 "Hg2 mi
3:30 am55 °FHaze.No wind72%30.01 "Hg2 mi
3:00 am57 °FHaze.No wind63%30.01 "Hg2 mi
2:30 am57 °FHaze.No wind63%30.01 "Hg2 mi
2:00 am55 °FHaze.No wind72%30.01 "Hg2 mi
1:30 am57 °FHaze.No wind67%30.01 "Hg2 mi
1:00 am57 °FClear.No wind59%30.04 "Hg2 mi
12:30 am59 °FClear.No wind59%30.04 "Hg2 mi
11:30 pm
Tue, Jan 17
63 °FClear.No wind64%30.04 "Hg2 mi
11:00 pm63 °FClear.No wind64%30.04 "Hg2 mi
10:30 pm59 °FClear.No wind72%30.04 "Hg2 mi
10:00 pm64 °FClear.No wind60%30.04 "Hg2 mi
9:30 pm64 °FClear.No wind56%30.04 "Hg2 mi
9:00 pm64 °FClear.No wind64%30.04 "Hg2 mi
8:30 pm64 °FClear.No wind52%30.01 "Hg2 mi
8:00 pm66 °FClear.No wind52%30.01 "Hg2 mi
7:30 pm66 °FClear.No wind49%30.01 "Hg2 mi
7:00 pm70 °FClear.No wind40%29.98 "Hg2 mi
6:30 pm70 °FClear.No wind38%29.98 "Hg3 mi
6:00 pm73 °FClear.No wind33%29.98 "Hg4 mi
5:30 pm75 °FClear.No wind31%29.98 "Hg4 mi
5:00 pm75 °FClear.No wind31%29.95 "Hg4 mi
3:30 pm77 °FClear.2 mph30%29.95 "Hg4 mi
3:00 pm75 °FClear.3 mph31%29.98 "Hg4 mi
2:30 pm77 °FClear.2 mph30%29.98 "Hg4 mi
2:00 pm75 °FClear.No wind34%29.98 "Hg4 mi
1:30 pm75 °FClear.3 mph34%30.01 "Hg4 mi
1:00 pm73 °FClear.6 mph36%30.01 "Hg4 mi
12:30 pm72 °FClear.5 mph38%30.04 "Hg4 mi
12:00 pm72 °FClear.6 mph36%30.07 "Hg4 mi
11:30 am70 °FClear.7 mph38%30.09 "Hg4 mi
11:00 am70 °FClear.7 mph35%30.09 "Hg4 mi
10:30 am68 °FClear.9 mph38%30.09 "Hg3 mi
10:00 am66 °FClear.8 mph40%30.09 "Hg3 mi
9:30 am63 °FClear.No wind49%30.09 "Hg2 mi
9:00 am59 °FClear.No wind59%30.09 "Hg2 mi
8:30 am55 °FHaze.No wind67%30.07 "Hg1 mi
8:00 am52 °FHaze.No wind77%30.07 "Hg1 mi
7:30 am52 °FHaze.3 mph77%30.04 "Hg1 mi
7:00 am52 °FHaze.No wind77%30.04 "Hg2 mi
Weather by CustomWeather, © 2017

See weather overviewHow to use our weather pages